Location: *
(33.8649°S, 62.1526°E)
Time: 13:02:45
(UTC+00:00)

COSMOS 2428 - Pass Details

Date: 17 January 2021
Orbit: 848 x 855 km, 70.9° (Epoch: 03 March)

Event Time Altitude Azimuth Distance (km) Brightness Sun altitude
Rises 22:48:46 0° 197° (SSW) 3,456 6.3 -22.6°
Reaches altitude 10° 22:51:17 10° 193° (SSW) 2,513 5.6 -22.3°
Maximum altitude 22:57:00 61° 113° (ESE) 972 3.2 -21.4°
Drops below altitude 10° 23:02:39 10° 33° (NNE) 2,480 5.0 -20.6°
Sets 23:05:07 0° 29° (NNE) 3,407 5.7 -20.2°
